Location: Peterborough
(44.3091°N, 78.3197°W)
Time: 00:42:37
(UTC-04:00)

SR - Pass Details

Date: 23 March 2023
Orbit: 581 x 867 km, 66.7° (Epoch: 02 June)

Event Time Altitude Azimuth Distance (km) Brightness Sun altitude
Rises 12:38:33 0° 327° (NNW) 2,812 ? 45.8°
Reaches altitude 10° 12:40:45 10° 328° (NNW) 1,919 ? 45.9°
Maximum altitude 12:45:02 88° 241° (WSW) 610 ? 46.1°
Drops below altitude 10° 12:49:32 10° 150° (SSE) 2,005 ? 46.3°
Sets 12:51:52 0° 151° (SSE) 2,950 ? 46.4°
